TimeEDT,TemperatureF,Dew PointF,Humidity,Sea Level PressureIn,VisibilityMPH,Wind Direction,Wind SpeedMPH,Gust SpeedMPH,PrecipitationIn,Events,Conditions,WindDirDegrees,DateUTC
12:26 AM,53.6,46.4,77,29.75,10.0,Calm,Calm,-,N/A,,Overcast,0,2013-10-20 04:26:00
12:52 AM,53.1,48.0,83,29.74,10.0,Calm,Calm,-,0.00,Rain,Light Rain,0,2013-10-20 04:52:00
1:52 AM,53.1,50.0,89,29.73,10.0,Calm,Calm,-,0.00,,Overcast,0,2013-10-20 05:52:00
2:49 AM,53.6,48.2,82,29.73,10.0,Calm,Calm,-,N/A,,Overcast,0,2013-10-20 06:49:00
2:52 AM,52.0,48.9,89,29.73,10.0,Calm,Calm,-,N/A,,Overcast,0,2013-10-20 06:52:00
3:11 AM,51.8,48.2,88,29.73,10.0,Calm,Calm,-,N/A,,Mostly Cloudy,0,2013-10-20 07:11:00
3:52 AM,50.0,48.0,93,29.73,7.0,Calm,Calm,-,N/A,,Mostly Cloudy,0,2013-10-20 07:52:00
4:52 AM,52.0,48.9,89,29.75,10.0,West,4.6,-,N/A,,Clear,260,2013-10-20 08:52:00
5:52 AM,52.0,48.0,86,29.77,10.0,West,5.8,-,N/A,,Clear,280,2013-10-20 09:52:00
6:52 AM,51.1,44.1,77,29.80,10.0,WNW,4.6,-,N/A,,Clear,300,2013-10-20 10:52:00
7:52 AM,50.0,42.1,74,29.83,10.0,NW,5.8,-,N/A,,Clear,310,2013-10-20 11:52:00
8:52 AM,52.0,37.9,59,29.87,10.0,WNW,6.9,-,0.01,,Clear,300,2013-10-20 12:52:00
9:52 AM,53.1,34.0,48,29.89,10.0,NW,11.5,25.3,0.00,,Clear,310,2013-10-20 13:52:00
10:52 AM,55.9,34.0,44,29.89,10.0,NW,10.4,17.3,N/A,,Clear,320,2013-10-20 14:52:00
11:52 AM,57.0,32.0,39,29.90,10.0,West,10.4,21.9,N/A,,Clear,280,2013-10-20 15:52:00
12:52 PM,60.1,30.9,33,29.89,10.0,West,11.5,18.4,N/A,,Clear,280,2013-10-20 16:52:00
1:52 PM,61.0,30.0,31,29.88,10.0,Variable,6.9,24.2,N/A,,Clear,0,2013-10-20 17:52:00
2:52 PM,62.1,28.9,29,29.89,10.0,WNW,10.4,19.6,N/A,,Clear,300,2013-10-20 18:52:00
3:52 PM,62.1,30.0,30,29.91,10.0,NNW,10.4,17.3,N/A,,Clear,330,2013-10-20 19:52:00
4:52 PM,61.0,28.9,30,29.92,10.0,WNW,9.2,16.1,N/A,,Clear,290,2013-10-20 20:52:00
5:52 PM,57.9,30.0,35,29.94,10.0,WNW,4.6,-,N/A,,Clear,300,2013-10-20 21:52:00
6:52 PM,51.1,35.1,54,29.97,10.0,Calm,Calm,-,N/A,,Clear,0,2013-10-20 22:52:00
7:52 PM,46.9,36.0,66,29.99,10.0,Calm,Calm,-,N/A,,Clear,0,2013-10-20 23:52:00
8:52 PM,44.1,36.0,73,30.02,10.0,Calm,Calm,-,N/A,,Clear,0,2013-10-21 00:52:00
9:52 PM,43.0,36.0,76,30.04,10.0,Calm,Calm,-,N/A,,Clear,0,2013-10-21 01:52:00
10:52 PM,41.0,35.1,79,30.05,10.0,Calm,Calm,-,N/A,,Clear,0,2013-10-21 02:52:00
11:52 PM,37.0,34.0,89,30.06,10.0,Calm,Calm,-,N/A,,Clear,0,2013-10-21 03:52:00